Stündliche Wetter Bolshie Litvinovichi

Heute, 17 Juni, Donnerstag

Zeit Temperatur Niederschläge Wind Luftdruck Luftfeuchtigkeit
00:00 +14°C° 0 mm 3 m/S 752 mmHg 84%
01:00 +14°C° 0 mm 3 m/S 752 mmHg 85%
02:00 +13°C° 0 mm 3 m/S 753 mmHg 86%
03:00 +13°C° 0 mm 3 m/S 753 mmHg 86%
04:00 +13°C° 0 mm 3 m/S 753 mmHg 86%
05:00 +13°C° 0 mm 3 m/S 753 mmHg 85%
06:00 +16°C° 0 mm 3 m/S 753 mmHg 79%
07:00 +18°C° 0 mm 3 m/S 754 mmHg 73%
08:00 +21°C° 0 mm 3 m/S 754 mmHg 67%
09:00 +22°C° 0 mm 3 m/S 754 mmHg 62%
10:00 +23°C° 0 mm 4 m/S 755 mmHg 58%
11:00 +26°C° 0 mm 4 m/S 755 mmHg 53%
12:00 +26°C° 0 mm 4 m/S 755 mmHg 51%
13:00 +26°C° 0 mm 4 m/S 755 mmHg 48%
14:00 +27°C° 0 mm 4 m/S 755 mmHg 46%
15:00 +26°C° 0 mm 4 m/S 755 mmHg 49%
16:00 +26°C° 0 mm 4 m/S 755 mmHg 52%
17:00 +26°C° 0 mm 4 m/S 755 mmHg 54%
18:00 +24°C° 0 mm 3 m/S 755 mmHg 62%
19:00 +21°C° 0 mm 3 m/S 755 mmHg 69%
20:00 +19°C° 0 mm 2 m/S 755 mmHg 76%
21:00 +18°C° 0 mm 2 m/S 755 mmHg 79%
22:00 +17°C° 0 mm 2 m/S 755 mmHg 82%
23:00 +16°C° 0 mm 2 m/S 756 mmHg 85%

Morgen, 18 Juni, Freitag

Zeit Temperatur Niederschläge Wind Luftdruck Luftfeuchtigkeit
00:00 +15°C° 0 mm 2 m/S 756 mmHg 87%
01:00 +15°C° 0 mm 2 m/S 756 mmHg 88%
02:00 +14°C° 0 mm 2 m/S 756 mmHg 90%
03:00 +15°C° 0 mm 2 m/S 756 mmHg 89%
04:00 +15°C° 0 mm 2 m/S 756 mmHg 88%
05:00 +14°C° 0 mm 3 m/S 756 mmHg 87%
06:00 +17°C° 0 mm 3 m/S 756 mmHg 80%
07:00 +19°C° 0 mm 4 m/S 756 mmHg 74%
08:00 +21°C° 0 mm 4 m/S 756 mmHg 67%
09:00 +22°C° 0 mm 4 m/S 756 mmHg 62%
10:00 +23°C° 0 mm 4 m/S 756 mmHg 58%
11:00 +25°C° 0 mm 4 m/S 756 mmHg 54%
12:00 +26°C° 0 mm 4 m/S 756 mmHg 53%
13:00 +27°C° 0 mm 4 m/S 756 mmHg 51%
14:00 +27°C° 0 mm 4 m/S 755 mmHg 50%
15:00 +27°C° 0 mm 4 m/S 755 mmHg 52%
16:00 +27°C° 0 mm 4 m/S 755 mmHg 54%
17:00 +26°C° 0 mm 4 m/S 755 mmHg 57%
18:00 +23°C° 0 mm 4 m/S 755 mmHg 65%
19:00 +22°C° 0 mm 3 m/S 755 mmHg 73%
20:00 +20°C° 0 mm 3 m/S 755 mmHg 81%
21:00 +19°C° 0 mm 3 m/S 755 mmHg 84%
22:00 +18°C° 0 mm 2 m/S 755 mmHg 87%
23:00 +17°C° 0 mm 2 m/S 756 mmHg 91%

übermorgen, 19 Juni, Samstag

Zeit Temperatur Niederschläge Wind Luftdruck Luftfeuchtigkeit
00:00 +17°C° 0 mm 2 m/S 756 mmHg 92%
01:00 +16°C° 0 mm 2 m/S 756 mmHg 93%
02:00 +16°C° 0 mm 2 m/S 756 mmHg 94%
03:00 +16°C° 0 mm 2 m/S 756 mmHg 94%
04:00 +16°C° 0 mm 2 m/S 756 mmHg 94%
05:00 +16°C° 0 mm 2 m/S 756 mmHg 94%
06:00 +18°C° 0 mm 2 m/S 756 mmHg 86%
07:00 +20°C° 0 mm 3 m/S 756 mmHg 79%
08:00 +22°C° 0 mm 3 m/S 756 mmHg 71%
09:00 +24°C° 0 mm 3 m/S 755 mmHg 66%
10:00 +25°C° 0 mm 4 m/S 755 mmHg 60%
11:00 +26°C° 0 mm 4 m/S 755 mmHg 55%
12:00 +27°C° 0 mm 4 m/S 755 mmHg 53%
13:00 +27°C° 0 mm 4 m/S 754 mmHg 51%
14:00 +28°C° 0 mm 4 m/S 754 mmHg 49%
15:00 +28°C° 0 mm 4 m/S 754 mmHg 52%
16:00 +28°C° 0 mm 3 m/S 754 mmHg 55%
17:00 +27°C° 0 mm 3 m/S 753 mmHg 58%
18:00 +26°C° 0 mm 3 m/S 753 mmHg 65%
19:00 +24°C° 0 mm 3 m/S 753 mmHg 73%
20:00 +21°C° 0 mm 3 m/S 753 mmHg 81%
21:00 +21°C° 0 mm 2 m/S 754 mmHg 84%
22:00 +20°C° 0 mm 2 m/S 754 mmHg 86%
23:00 +19°C° 0 mm 2 m/S 754 mmHg 89%

20 Juni, Sonntag

Zeit Temperatur Niederschläge Wind Luftdruck Luftfeuchtigkeit
00:00 +20°C° 0 mm 2 m/S 754 mmHg 89%
01:00 +20°C° 0 mm 2 m/S 754 mmHg 88%
02:00 +20°C° 0 mm 2 m/S 753 mmHg 88%
03:00 +20°C° 0 mm 2 m/S 753 mmHg 88%
04:00 +20°C° 0 mm 2 m/S 753 mmHg 89%
05:00 +20°C° 0 mm 2 m/S 753 mmHg 90%
06:00 +21°C° 0 mm 2 m/S 753 mmHg 88%
07:00 +21°C° 0 mm 3 m/S 753 mmHg 86%
08:00 +22°C° 0 mm 3 m/S 753 mmHg 84%
09:00 +25°C° 0 mm 3 m/S 753 mmHg 75%
10:00 +26°C° 0 mm 4 m/S 753 mmHg 66%
11:00 +28°C° 0 mm 4 m/S 753 mmHg 58%
12:00 +29°C° 0 mm 4 m/S 752 mmHg 55%
13:00 +29°C° 0 mm 4 m/S 752 mmHg 53%
14:00 +30°C° 0 mm 4 m/S 752 mmHg 50%
15:00 +29°C° 0 mm 4 m/S 752 mmHg 52%
16:00 +29°C° 0 mm 4 m/S 751 mmHg 54%
17:00 +29°C° 0 mm 4 m/S 751 mmHg 57%
18:00 +27°C° 0 mm 3 m/S 751 mmHg 64%
19:00 +25°C° 0 mm 3 m/S 751 mmHg 72%
20:00 +23°C° 0 mm 2 m/S 751 mmHg 80%
21:00 +21°C° 0 mm 2 m/S 751 mmHg 83%
22:00 +20°C° 0 mm 2 m/S 751 mmHg 87%
23:00 +19°C° 0 mm 2 m/S 752 mmHg 91%

21 Juni, Montag

Zeit Temperatur Niederschläge Wind Luftdruck Luftfeuchtigkeit
00:00 +19°C° 0 mm 2 m/S 751 mmHg 92%
01:00 +18°C° 0 mm 2 m/S 751 mmHg 94%
02:00 +18°C° 0 mm 3 m/S 751 mmHg 95%
03:00 +18°C° 0 mm 3 m/S 751 mmHg 94%
04:00 +18°C° 0 mm 3 m/S 751 mmHg 94%
05:00 +18°C° 0 mm 3 m/S 751 mmHg 93%
06:00 +20°C° 0 mm 3 m/S 751 mmHg 86%
07:00 +21°C° 0 mm 3 m/S 751 mmHg 79%
08:00 +23°C° 0 mm 4 m/S 751 mmHg 72%
09:00 +25°C° 0 mm 4 m/S 751 mmHg 67%
10:00 +26°C° 0 mm 4 m/S 751 mmHg 62%
11:00 +28°C° 0 mm 5 m/S 750 mmHg 56%
12:00 +28°C° 0 mm 5 m/S 750 mmHg 55%
13:00 +29°C° 0 mm 5 m/S 750 mmHg 54%
14:00 +29°C° 0 mm 6 m/S 750 mmHg 53%
15:00 +30°C° 0 mm 5 m/S 749 mmHg 55%
16:00 +30°C° 0 mm 5 m/S 749 mmHg 56%
17:00 +30°C° 0 mm 5 m/S 749 mmHg 58%
18:00 +28°C° 0 mm 4 m/S 749 mmHg 65%
19:00 +27°C° 0 mm 4 m/S 749 mmHg 71%
20:00 +25°C° 0 mm 3 m/S 749 mmHg 77%
21:00 +24°C° 0 mm 3 m/S 749 mmHg 82%
22:00 +22°C° 0 mm 3 m/S 749 mmHg 86%
23:00 +21°C° 0 mm 3 m/S 749 mmHg 91%

22 Juni, Dienstag

Zeit Temperatur Niederschläge Wind Luftdruck Luftfeuchtigkeit
00:00 +21°C° 0 mm 3 m/S 749 mmHg 92%
01:00 +21°C° 0 mm 3 m/S 749 mmHg 93%
02:00 +20°C° 0 mm 3 m/S 749 mmHg 94%
03:00 +20°C° 0 mm 3 m/S 749 mmHg 93%
04:00 +20°C° 0 mm 3 m/S 749 mmHg 92%
05:00 +20°C° 0 mm 3 m/S 749 mmHg 91%
06:00 +22°C° 0 mm 4 m/S 750 mmHg 83%
07:00 +23°C° 0 mm 4 m/S 750 mmHg 75%
08:00 +26°C° 0 mm 5 m/S 750 mmHg 67%
09:00 +28°C° 0 mm 5 m/S 750 mmHg 61%
10:00 +29°C° 0 mm 6 m/S 750 mmHg 55%
11:00 +32°C° 0 mm 6 m/S 749 mmHg 49%
12:00 +32°C° 0 mm 6 m/S 749 mmHg 47%
13:00 +33°C° 0 mm 6 m/S 749 mmHg 46%
14:00 +33°C° 0 mm 6 m/S 749 mmHg 44%
15:00 +33°C° 0 mm 6 m/S 749 mmHg 47%
16:00 +32°C° 0 mm 5 m/S 749 mmHg 50%
17:00 +30°C° 0 mm 5 m/S 750 mmHg 54%
18:00 +28°C° 0 mm 5 m/S 750 mmHg 61%
19:00 +27°C° 0 mm 4 m/S 750 mmHg 68%
20:00 +25°C° 0 mm 4 m/S 750 mmHg 75%
21:00 +25°C° 0 mm 4 m/S 750 mmHg 81%
22:00 +23°C° 0 mm 4 m/S 750 mmHg 86%
23:00 +22°C° 0 mm 3 m/S 750 mmHg 92%
Mehr zeigen

Wir brauchen deine Erlaubnis

Meteoprog und unser Service Anbieter werden persönliche Daten aufbewahren, so wie Cookies, Geräte Bezeichnung oder ähnliche Technologien von deinem Gerät und Prozess, so wie Persönliche Daten Inhalte und Werbungen, genauso wie social Media und den Verkehr zu analysieren.

  • Aufbewahrung und/oder Zugang zu deiner Geräte Informationen.

    Cookies, Geräte Bezeichnung oder andere Informationen, können aufbewahrt oder Zugang zu deinem Gerät erhalten, für den Grund, der oben angegeben wird.

  • Personalisierte Werbung und Inhalte, Messungen, Einblick in das Publikum und Produkt Entwicklung.

    Werbungen und Inhalte können personalisiert werden, basierend auf ein Profil. Mehr Daten können besser personalisierte Werbungen und Inhalte hinzufügen. Werbung und Inhalte können gezeigt und gemessen werden. Einblicke über das Publikum, welche die Werbung gesehen haben und den Inhalt, können abgeleitet werden. So wie Daten können genutzt werden, um es zu verbessern oder die Benutzer Erfahrung zu verbessern das System und die Software.

Wenn du “Ich stimme zu” klickst, erlaubst du uns, die Cookies zu benutzen die Geräte Bezeichnung, den Web oder ähnliche Technologien zu benutzen. Deine Settings, können in deinem Gerät bei deinem Browser geändert werden.

Für den bestimmten Zweck, berechtigten Interessen beruhen darauf, mehr als auf den Inhalt. Du kannst mehr darüber in unseren Privaten und Cookie Politik lesen.